Flag for Germany Weather past 2 weeks in Marl, North Rhine-Westphalia, Germany

Now
39 °F

Clear.


Feels Like: 33 °F
Forecast: 37 / 47 °F
Wind: 9 mph from Southwest

Location: Dortmund / Wickede

Current Time: Mar 5, 2015 at 9:38:25 PM

Latest Report: Mar 5, 2015 at 9:20 PM


Visibility: 10 mi

Pressure: 30.60 "Hg

Humidity: 75%

Dew point: 32 °F

Location of MarlLocation

Historic Weather in Marl — Graph

°F

Marl temperature yesterday

Maximum temperature yesterday: 43 °F (at 2:50 PM)
Minimum temperature yesterday: 34 °F (at 6:20 AM)
Average temperature yesterday: 39 °F

Past Weeks' High & Low Weather Summary

 TemperatureHumidityPressure
High52 °F (Mar 1, 12:50 PM)93% (Feb 21, 7:20 PM)30.63 "Hg (Feb 21, 7:20 PM)
Low30 °F (Feb 28, 5:20 AM)42% (Feb 28, 1:50 PM)29.33 "Hg (Feb 21, 5:20 AM)
Average40 °F74%29.90 "Hg
* Reported Feb 18 8:20 PM — Mar 5 8:20 PM, Marl, Weather by CustomWeather, © 2015

Note: Actual official high and low records may vary slightly from our data, if they occured in-between our weather recording intervals... More about our weather records

Advertising

Marl weather history for previous 24 hours

 ConditionsComfort  
Time TempWeatherWind HumidityBarometerVisibility
8:20 PM
Thu, Mar 5
41 °FClear.6 mph70%30.60 "Hg10 mi
7:50 PM43 °FClear.5 mph66%30.60 "Hg10 mi
7:20 PM43 °FClear.3 mph66%30.60 "Hg10 mi
6:50 PM45 °FClear.3 mph61%30.60 "Hg10 mi
6:20 PM45 °FClear.3 mph61%30.60 "Hg10 mi
5:50 PM45 °FPassing clouds.6 mph57%30.60 "HgN/A
5:20 PM45 °FScattered clouds.6 mph61%30.60 "HgN/A
4:50 PM45 °FScattered clouds.7 mph57%30.60 "HgN/A
4:20 PM45 °FScattered clouds.7 mph61%30.60 "HgN/A
3:50 PM45 °FBroken clouds.7 mph61%30.60 "HgN/A
3:20 PM45 °FPartly sunny.7 mph61%30.60 "HgN/A
2:50 PM45 °FPartly sunny.7 mph57%30.60 "HgN/A
2:20 PM45 °FScattered clouds.7 mph61%30.60 "HgN/A
1:50 PM43 °FScattered clouds.8 mph66%30.60 "HgN/A
1:20 PM43 °FScattered clouds.7 mph76%30.63 "HgN/A
12:50 PM43 °FScattered clouds.7 mph71%30.63 "HgN/A
12:20 PM41 °FPartly sunny.7 mph81%30.63 "HgN/A
11:50 AM41 °FPartly sunny.8 mph76%30.63 "HgN/A
11:20 AM41 °FPartly sunny.8 mph76%30.63 "HgN/A
10:50 AM39 °FPartly sunny.8 mph87%30.63 "Hg6 mi
10:20 AM39 °FPartly sunny.7 mph81%30.63 "Hg5 mi
9:50 AM37 °FPartly sunny.7 mph87%30.63 "Hg5 mi
9:20 AM37 °FPartly sunny.6 mph87%30.60 "Hg5 mi
8:50 AM37 °FPartly sunny.5 mph87%30.60 "Hg5 mi
8:20 AM37 °FLow clouds.3 mph87%30.60 "Hg6 mi
7:50 AM36 °FLow clouds.3 mph93%30.60 "Hg4 mi
7:20 AM36 °FPartly sunny.5 mph93%30.60 "HgN/A
6:50 AM37 °FPassing clouds.5 mph87%30.57 "HgN/A
6:20 AM37 °FPassing clouds.6 mph87%30.57 "HgN/A
5:50 AM36 °FPassing clouds.6 mph87%30.57 "HgN/A
5:20 AM37 °FPassing clouds.5 mph81%30.57 "HgN/A
10:50 PM
Wed, Mar 4
39 °FPassing clouds.10 mph81%30.39 "HgN/A
10:20 PM39 °FPassing clouds.10 mph81%30.36 "HgN/A
9:50 PM39 °FPassing clouds.12 mph81%30.36 "HgN/A
9:20 PM39 °FSprinkles. Passing clouds.14 mph81%30.33 "HgN/A
Weather by CustomWeather, © 2015

See weather overviewHow to use our weather pages